EW4055 Weather Reports


Display with metric or nautical units.
time (UTC)temp
F
wind
direction
speed
MPH
gust
MPH
rain 1hr
in
rain 24hr
in
rain mn
in
humidity
%
barometer
mb
20260901103812 89 75 1.0 4.0 0.00 0.00 0.00 47 1018.0
20260901103445 90 55 3.0 6.0 0.00 0.00 0.00 45 1017.9
20260901101329 88 0 1.0 7.0 0.00 0.00 0.00 46 1018.0
20260901100328 88 104 3.0 6.0 0.00 0.00 0.00 46 1018.1
20260901095321 88 80 3.0 6.0 0.00 0.00 0.00 45 1018.2
20260901094319 89 80 1.0 4.0 0.00 0.00 0.00 42 1018.2
20260901093322 89 337 2.0 4.0 0.00 0.00 0.00 45 1018.3
20260901092320 88 321 2.0 4.0 0.00 0.00 0.00 46 1018.3
20260901091323 87 25 2.0 4.0 0.00 0.00 0.00 45 1018.3
20260901090957 86 295 3.0 6.0 0.00 0.00 0.00 47 1018.3
20260901085318 85 227 2.0 5.0 0.00 0.00 0.00 50 1018.4
20260901084320 84 285 2.0 5.0 0.00 0.00 0.00 49 1018.4
20260901083319 84 290 2.0 6.0 0.00 0.00 0.00 50 1018.4
20260901082319 83 310 2.0 9.0 0.00 0.00 0.00 51 1018.3
20260901081319 82 324 4.0 7.0 0.00 0.00 0.00 51 1018.3
20260901080320 82 282 1.0 4.0 0.00 0.00 0.00 51 1018.2
20260901075318 81 319 4.0 7.0 0.00 0.00 0.00 53 1018.2
20260901075212 80 306 3.0 6.0 0.00 0.00 0.00 57 1018.0
20260901075158 80 285 3.0 6.0 0.00 0.00 0.00 57 1018.0
20260901074338 81 281 2.0 6.0 0.00 0.00 0.00 56 1018.1
20260901071313 79 305 4.0 9.0 0.00 0.00 0.00 57 1017.9
20260901070312 79 289 3.0 6.0 0.00 0.00 0.00 55 1017.9
20260901065313 78 282 3.0 7.0 0.00 0.00 0.00 56 1017.9
20260901064313 77 293 2.0 5.0 0.00 0.00 0.00 58 1017.8
20260901063311 77 306 2.0 5.0 0.00 0.00 0.00 59 1017.7
20260901062310 76 298 4.0 7.0 0.00 0.00 0.00 59 1017.7
20260901061307 76 309 3.0 6.0 0.00 0.00 0.00 59 1017.6
20260901060306 76 309 3.0 6.0 0.00 0.00 0.00 59 1017.6
20260901055306 76 310 3.0 6.0 0.00 0.00 0.00 58 1017.5
20260901055050 76 286 5.0 7.0 0.00 0.00 0.00 57 1017.4
20260901054201 76 289 2.0 4.0 0.00 0.00 0.00 55 1017.2
20260901053326 76 307 3.0 4.0 0.00 0.00 0.00 57 1017.4
20260901052418 76 300 2.0 7.0 0.00 0.00 0.00 56 1017.4
20260901050304 76 289 3.0 5.0 0.00 0.00 0.00 55 1016.9
20260901045306 76 279 4.0 5.0 0.00 0.00 0.00 55 1016.8
20260901044742 76 283 4.0 5.0 0.00 0.00 0.00 55 1016.7
20260901044421 76 279 3.0 5.0 0.00 0.00 0.00 55 1016.7
20260901042301 76 274 4.0 6.0 0.00 0.00 0.00 55 1016.6
20260901041301 76 279 5.0 6.0 0.00 0.00 0.00 55 1016.5
20260901040303 76 275 4.0 7.0 0.00 0.00 0.00 55 1016.5
20260901040126 76 269 4.0 7.0 0.00 0.00 0.00 55 1016.4
20260901035100 76 282 4.0 6.0 0.00 0.00 0.00 55 1016.4
20260901034133 76 281 3.0 5.0 0.00 0.00 0.00 55 1016.2
20260901033357 76 272 4.0 5.0 0.00 0.00 0.00 55 1016.3
20260901033316 76 278 4.0 6.0 0.00 0.00 0.00 55 1016.3
20260901030300 77 278 4.0 5.0 0.00 0.00 0.00 54 1016.2
20260901025254 77 271 4.0 6.0 0.00 0.00 0.00 54 1016.2
20260901024302 77 254 4.0 7.0 0.00 0.00 0.00 54 1016.2
20260901024044 77 285 5.0 6.0 0.00 0.00 0.00 54 1016.2
20260901022252 77 281 4.0 5.0 0.00 0.00 0.00 54 1016.2
20260901021254 77 272 3.0 4.0 0.00 0.00 0.00 53 1016.2
20260901020251 78 265 3.0 5.0 0.00 0.00 0.00 53 1016.0
20260901015252 78 274 4.0 5.0 0.00 0.00 0.00 53 1016.2
20260901014250 78 279 4.0 5.0 0.00 0.00 0.00 53 1016.2
20260901013252 78 275 5.0 7.0 0.00 0.00 0.00 54 1016.2
20260901012250 78 278 5.0 9.0 0.00 0.00 0.00 53 1016.2
20260901011249 78 265 4.0 5.0 0.00 0.00 0.00 54 1016.2
20260901010250 78 274 4.0 6.0 0.00 0.00 0.00 54 1016.2
20260901005246 77 283 5.0 7.0 0.00 0.00 0.00 55 1016.1
20260901004249 77 266 3.0 4.0 0.00 0.00 0.00 56 1016.0
20260901003707 77 261 2.0 3.0 0.00 0.00 0.00 56 1016.0
20260901003359 77 274 3.0 5.0 0.00 0.00 0.00 56 1016.0
20260901001943 76 261 2.0 3.0 0.00 0.00 0.00 56 1016.0
20260901000242 77 261 2.0 3.0 0.00 0.00 0.00 57 1015.9
20260831235238 76 258 2.0 3.0 0.00 0.00 0.00 58 1015.9
20260831234909 76 243 1.0 5.0 0.00 0.00 0.00 60 1015.9
20260831233236 76 226 3.0 6.0 0.00 0.00 0.00 60 1015.9
20260831232237 76 213 0.0 3.0 0.00 0.00 0.00 60 1015.8
20260831231235 77 293 1.0 4.0 0.00 0.00 0.00 61 1015.9
20260831230237 77 278 2.0 9.0 0.00 0.00 0.00 60 1015.7
20260831225235 76 248 3.0 5.0 0.00 0.00 0.00 63 1015.8
20260831224237 76 221 1.0 3.0 0.00 0.00 0.00 66 1015.7
20260831223921 76 223 1.0 5.0 0.00 0.00 0.00 66 1015.6
20260831222237 76 238 2.0 7.0 0.00 0.00 0.00 68 1015.6
20260831221232 76 193 0.0 0.0 0.00 0.00 0.00 69 1015.5
20260831220233 75 193 0.0 3.0 0.00 0.00 0.00 72 1015.4
20260831215853 75 193 0.0 0.0 0.00 0.00 0.00 73 1015.4
20260831214232 75 193 0.0 0.0 0.00 0.00 0.00 75 1015.3
20260831213232 75 193 0.0 2.0 0.00 0.00 0.00 75 1015.3
20260831212233 75 193 0.0 2.0 0.00 0.00 0.00 75 1015.3
20260831211852 75 193 0.0 1.0 0.00 0.00 0.00 75 1015.1
20260831210232 75 193 0.0 0.0 0.00 0.00 0.00 75 1015.1
20260831205234 76 193 0.0 2.0 0.00 0.00 0.00 75 1015.1
20260831204232 76 193 0.0 2.0 0.00 0.00 0.00 75 1015.0
20260831203611 76 159 1.0 2.0 0.00 0.00 0.00 74 1014.8
20260831203336 76 193 0.0 2.0 0.00 0.00 0.00 74 1015.0
20260831201232 76 169 1.0 3.0 0.00 0.00 0.00 73 1014.8
20260831200236 77 189 1.0 4.0 0.00 0.00 0.00 72 1014.7
20260831195658 77 238 1.0 2.0 0.00 0.00 0.00 71 1014.7
20260831195344 77 148 1.0 3.0 0.00 0.00 0.00 72 1014.7
20260831193225 77 161 1.0 3.0 0.00 0.00 0.00 71 1014.8
20260831192224 78 114 1.0 4.0 0.00 0.00 0.00 71 1014.8
20260831191223 78 114 2.0 4.0 0.00 0.00 0.00 70 1014.8
20260831190226 78 134 3.0 5.0 0.00 0.00 0.00 70 1014.9
20260831185222 78 102 4.0 5.0 0.00 0.00 0.00 69 1014.9
20260831184223 79 97 2.0 4.0 0.00 0.00 0.00 68 1014.8
20260831183653 79 117 3.0 6.0 0.00 0.00 0.00 66 1014.7
20260831183334 79 85 3.0 5.0 0.00 0.00 0.00 66 1014.7
20260831181948 80 107 4.0 5.0 0.00 0.00 0.00 64 1014.7
20260831180222 80 61 4.0 6.0 0.00 0.00 0.00 63 1014.7
20260831175221 80 51 4.0 5.0 0.00 0.00 0.00 63 1014.7
20260831174925 80 58 3.0 6.0 0.00 0.00 0.00 62 1014.7
20260831173221 81 41 4.0 5.0 0.00 0.00 0.00 61 1014.7
20260831172910 81 59 3.0 4.0 0.00 0.00 0.00 59 1014.6
20260831171220 81 54 2.0 6.0 0.00 0.00 0.00 60 1014.6
20260831170221 82 28 4.0 6.0 0.00 0.00 0.00 60 1014.7
20260831165220 82 62 2.0 5.0 0.00 0.00 0.00 59 1014.6
20260831164220 82 58 3.0 10.0 0.00 0.00 0.00 60 1014.8
20260831163219 83 59 6.0 9.0 0.00 0.00 0.00 59 1014.8
20260831162218 83 59 5.0 7.0 0.00 0.00 0.00 58 1014.9
20260831161945 83 66 3.0 9.0 0.00 0.00 0.00 58 1014.9
20260831160218 83 75 4.0 9.0 0.00 0.00 0.00 58 1015.0
20260831155224 84 23 5.0 9.0 0.00 0.00 0.00 58 1015.0
20260831154220 84 87 6.0 11.0 0.00 0.00 0.00 57 1014.9
20260831153220 84 25 4.0 9.0 0.00 0.00 0.00 54 1015.0
20260831152218 84 87 4.0 9.0 0.00 0.00 0.00 53 1014.9
20260831151220 85 59 4.0 10.0 0.00 0.00 0.00 53 1015.0
20260831150218 85 21 6.0 10.0 0.00 0.00 0.00 54 1015.0
20260831145217 85 44 6.0 10.0 0.00 0.00 0.00 55 1015.0
20260831144217 85 0 3.0 9.0 0.00 0.00 0.00 56 1015.1
20260831143221 85 51 4.0 11.0 0.00 0.00 0.00 55 1015.0
20260831142826 85 0 5.0 11.0 0.00 0.00 0.00 55 1015.0
20260831141659 86 62 6.0 12.0 0.00 0.00 0.00 54 1015.0
20260831141332 86 7 6.0 13.0 0.00 0.00 0.00 54 1015.0
20260831135214 86 96 10.0 15.0 0.00 0.00 0.00 54 1015.1
20260831134215 86 39 6.0 12.0 0.00 0.00 0.00 54 1014.9
20260831133215 86 55 7.0 16.0 0.00 0.00 0.00 54 1015.0
20260831132900 86 63 6.0 13.0 0.00 0.00 0.00 54 1015.0
20260831131217 86 355 6.0 13.0 0.00 0.00 0.00 55 1014.9
20260831130216 87 10 7.0 15.0 0.00 0.00 0.00 55 1015.0
20260831125214 87 7 6.0 12.0 0.00 0.00 0.00 56 1015.1
20260831124215 87 102 7.0 12.0 0.00 0.00 0.00 55 1015.0
20260831123901 87 6 6.0 13.0 0.00 0.00 0.00 55 1015.0
20260831122215 87 30 8.0 15.0 0.00 0.00 0.00 54 1015.0
20260831121214 87 51 7.0 13.0 0.00 0.00 0.00 55 1014.9
20260831120219 87 61 9.0 14.0 0.00 0.00 0.00 54 1014.9
20260831115211 87 92 8.0 15.0 0.00 0.00 0.00 57 1014.9
20260831114213 87 31 6.0 14.0 0.00 0.00 0.00 57 1014.9
20260831113211 87 24 6.0 13.0 0.00 0.00 0.00 57 1015.2
20260831112211 87 63 6.0 15.0 0.00 0.00 0.00 56 1015.1
20260831111213 87 353 6.0 13.0 0.00 0.00 0.00 56 1015.1
20260831110929 88 45 7.0 15.0 0.00 0.00 0.00 55 1015.1
20260831105211 88 92 7.0 14.0 0.00 0.00 0.00 52 1015.1
20260831104214 89 89 9.0 15.0 0.00 0.00 0.00 52 1015.1